User: anonymous   Login
Location: Hopkins Observatory
(42.6965°N, 73.1843°W)
Time: 13:11:55
(UTC-05:00)
Language:

RS-15 - Orbit

View from above orbital plane
View from above orbital plane
View from above satellite
View from above satellite

Ground track
Ground track

The orbit data is extracted from the following two-line orbital elements,

1 23439U 94085A   17020.72343279 -.00000032 +00000-0 +29105-3 0  9990
2 23439 064.8164 097.6828 0167980 270.9058 258.9533 11.27565584908785
Epoch (UTC): 20 January 2017 17:21:44
Eccentricity: 0.0167980
inclination: 64.8164°
perigee height: 1881 km
apogee height: 2163 km
right ascension of ascending node: 97.6828°
argument of perigee: 270.9058°
revolutions per day: 11.27565584
mean anomaly at epoch: 258.9533°
orbit number at epoch: 90878

The dashed part of the orbit path shows where the satellite is in the earth's shadow,  

DLR